STARLINK-34264, 64277

Orbit data source: Space-Track

STARLINK-34264, 64277 is a payload satellite owned by SpaceX/Seattle (US) in LEO that was launched on Wed, 04 Jun 2025 UTC via an FALCON 9 launch vehicle from the Air Force Western Test Range (AFWTR). Payload-class satellites include a variety of spacecraft equipped with specific instruments for various scientific and technological missions. These include communications satellites like Starlink; space stations such as the ISS; scientific satellites like the Hubble; Earth observation satellites from companies like Planet Labs, Umbra, and HawkEye 360; GPS; miniature CubeSats for education and research; and military/defense satellites.

Loading next visibility...
Identifier
64277, 2025-120X
Orbit
LEO
Country
Flag of USUS
Related business
Manufacturer
SpaceX/Seattle
Mission
Operational Commercial Communications
Bus & Motor
STARLINK V2MO, Unknown motor
Mass
575 kg wet, ~530 kg dry
Launch date (UTC)
2025-06-04 (1 year ago)
Launch vehicle
FALCON 9
Launch site
Air Force Western Test Range (AFWTR)
Object type
Payload
Rocket body
Debris
Shape & HBR
Box + 2 Pan, 17.7 m
Radar Cross Section
36.964 m², Large (>1 m²)

Expand to show TLE details & history
Last TLE update: 23 hours ago

TLE from 23 hours ago
0 STARLINK-34264
1 64277U 25120X   26170.90223026  .00027558  00000-0  93972-3 0  9996
2 64277  53.1599   2.0437 0001183  90.6981 269.4155 15.30179279 59507
Epoch: 2026-06-19T21:39Z
TLE epoch observation values (Epoch: 2026-06-19T21:39:12.694Z)
Latitude
-0.00004°
Longitude
129.11623°
Altitude
476.185 km
Speed
7.629 km/s
True Right ascension
00h 08m 10s
True Declination
0° 00' 00"
Sunlit
Object was in daylight at epoch
Visualization orbit readout
Latitude
Unknown
Longitude
Unknown
Altitude
Unknown
Speed
Unknown
Apparent Right ascension
Unknown
Apparent Declination
Unknown
Sunlit
N/A
Visualization observer readout
Local Sidereal Time
07:14:18
Azimuth
Unknown
Elevation
Unknown
Doppler factor
Unknown
Orbital elements
Apogee altitude
476.344 km
Perigee altitude
474.723 km
Semi-major axis
6,853.67 km
Eccentricity
0.00012
Inclination
53.1599°
RAAN
2.0437°
Arg. of periapsis
90.6981°
True anomaly
269.40194°
Mean anomaly
269.4155°
Eccentric anomaly
269.40872°
Mean motion
3.82524 °/min
Orbital period
94.11 mins
BSTAR
0.00093972
Loading maneuver chart data...
Computing Atmospheric mass density...
Loading historical data...
Loading historical data...
Loading historical data...
Loading historical data...
Loading historical data...
Loading historical data...
Loading historical data...

Documentation

Showing up to 5 results
|